Starlink 30802

operational
NORAD ID: 58150 Int'l Des: 2023-166 Owner: SPXS Country: US Constellation: starlink
LEOCIRCULAR

关于 Starlink 30802

正在加载描述...

实时位置

正在加载3D地球...

即将过境

高度历史

Altitude vs Time

uPlot chart will show altitude changes over time

两行轨道根数

1 58150U 23166A 26034.19556673 -.00000203 00000-0 52792-5 0 9990
2 58150 53.1627 20.1356 0001330 93.4501 266.6652 15.30189564127893
Epoch: Feb 3, 2026 • Age: 10 hours

当前状态

高度 476.7 km
速度 7.63 km/s
星下点 -3.74°S, 156.38°W
发射日期 Oct 29, 2023
运行时间 2.2 years
类型 internet

技术详情

分类 Payload
质量 730.00 kg
干质量 700.00 kg
总质量 730.00 kg
长度 0.30 m
直径 4.10 m
跨度 29.00 m
形状 Box + pan
制造商 SPXS
平台类型 Starlink V2M
阶段状态 In Orbit
所有者/国家 SPXS/US

大型星座

Loading constellations...